Flag for Colombia Weather past 2 weeks in Barranquilla, Colombia

Now
88 °F

Partly sunny.


Feels Like: 105 °F
Forecast: 79 / 92 °F
Wind: 12 mph from Southeast

Location: Barranquilla / Ernestocortissoz

Current Time: Oct 24, 2014 at 10:43:19 AM

Latest Report: Oct 24, 2014 at 10:00 AM


Visibility: N/A

Pressure: 29.87 "Hg

Humidity: 79%

Dew point: 81 °F

Location of BarranquillaLocation

Historic Weather in Barranquilla — Graph

°F

Barranquilla temperature yesterday

Maximum temperature yesterday: 93 °F (at 12:00 PM)
Minimum temperature yesterday: 77 °F (at 6:00 AM)
Average temperature yesterday: 84 °F

Past Weeks' High & Low Weather Summary

 TemperatureHumidityPressure
High93 °F (Oct 13, 1:00 PM)100% (Oct 9, 9:00 AM)29.95 "Hg (Oct 9, 9:00 AM)
Low72 °F (Oct 19, 7:00 PM)63% (Oct 10, 1:00 PM)29.76 "Hg (Oct 20, 4:00 PM)
Average82 °F88%29.85 "Hg
* Reported Oct 9 9:00 AM — Oct 24 9:00 AM, Barranquilla, Weather by CustomWeather, © 2014

Note: Actual official high and low records may vary slightly from our data, if they occured in-between our weather recording intervals... More about our weather records

Advertising

Barranquilla weather history for previous 24 hours

 ConditionsComfort  
Time TempWeatherWind HumidityBarometerVisibility
9:00 AM
Oct 24
84 °FPartly sunny.10 mph89%29.88 "Hg5 mi
8:00 AM81 °FPartly sunny.8 mph94%29.86 "Hg4 mi
7:00 AM81 °FFog.5 mph94%29.85 "Hg3 mi
6:00 AM79 °FFog.3 mph100%29.82 "Hg4 mi
5:00 AM79 °FPassing clouds.5 mph100%29.80 "HgN/A
4:00 AM81 °FPassing clouds.6 mph84%29.80 "HgN/A
3:00 AM82 °FPassing clouds.10 mph89%29.79 "HgN/A
2:00 AM82 °FPassing clouds.9 mph89%29.80 "HgN/A
1:00 AM82 °FPassing clouds.7 mph89%29.82 "HgN/A
12:00 AM82 °FPassing clouds.5 mph89%29.85 "HgN/A
11:00 PM
Oct 23
82 °FPassing clouds.8 mph89%29.85 "HgN/A
10:00 PM82 °FPassing clouds.12 mph89%29.84 "HgN/A
9:00 PM82 °FPassing clouds.5 mph89%29.84 "HgN/A
8:00 PM82 °FPassing clouds.5 mph89%29.83 "HgN/A
7:00 PM82 °FPassing clouds.7 mph89%29.79 "HgN/A
6:00 PM84 °FPassing clouds.2 mph89%29.80 "HgN/A
5:00 PM86 °FScattered clouds.12 mph79%29.78 "HgN/A
4:00 PM90 °FScattered clouds.8 mph75%29.77 "HgN/A
3:00 PM91 °FScattered clouds.9 mph67%29.77 "HgN/A
2:00 PM91 °FScattered clouds.6 mph67%29.79 "HgN/A
1:00 PM90 °FScattered clouds.7 mph71%29.82 "HgN/A
12:00 PM93 °FScattered clouds.5 mph67%29.84 "HgN/A
11:00 AM91 °FScattered clouds.5 mph71%29.87 "HgN/A
10:00 AM90 °FScattered clouds.5 mph75%29.89 "HgN/A
Weather by CustomWeather, © 2014

See weather overviewHow to use our weather pages